Previsão horária em Aberdare

Hoje, 24 Janeiro, Domingo

Tempo Temperatura Precipitação Vento Pressão Humidade
00:00 -1°C° 0 mm 1 m/s 726 mmHg 82%
01:00 0°C° 0 mm 1 m/s 726 mmHg 83%
02:00 0°C° 0 mm 1 m/s 725 mmHg 84%
03:00 -2°C° 0 mm 2 m/s 725 mmHg 85%
04:00 -2°C° 0.3 mm 2 m/s 725 mmHg 88%
05:00 -2°C° 0.3 mm 2 m/s 725 mmHg 90%
06:00 -2°C° 0.3 mm 2 m/s 725 mmHg 92%
07:00 -2°C° 1.4 mm 2 m/s 725 mmHg 93%
08:00 -2°C° 1.4 mm 2 m/s 725 mmHg 94%
09:00 -2°C° 1.4 mm 2 m/s 725 mmHg 95%
10:00 -1°C° 0.1 mm 3 m/s 726 mmHg 92%
11:00 -1°C° 0.1 mm 3 m/s 726 mmHg 90%
12:00 -1°C° 0.1 mm 4 m/s 726 mmHg 87%
13:00 -1°C° 0 mm 4 m/s 727 mmHg 86%
14:00 -1°C° 0 mm 4 m/s 727 mmHg 84%
15:00 -1°C° 0 mm 4 m/s 727 mmHg 83%
16:00 -2°C° 0 mm 4 m/s 728 mmHg 85%
17:00 -2°C° 0 mm 4 m/s 728 mmHg 87%
18:00 -3°C° 0 mm 4 m/s 728 mmHg 88%
19:00 -3°C° 0.2 mm 6 m/s 729 mmHg 90%
20:00 -3°C° 0.2 mm 7 m/s 729 mmHg 92%
21:00 -4°C° 0.2 mm 9 m/s 729 mmHg 94%
22:00 -3°C° 0.1 mm 9 m/s 729 mmHg 94%
23:00 -3°C° 0.1 mm 9 m/s 730 mmHg 94%

Amanhã, 25 Janeiro, Segunda-feira

Tempo Temperatura Precipitação Vento Pressão Humidade
00:00 -3°C° 0.1 mm 9 m/s 730 mmHg 94%
01:00 -2°C° 0 mm 8 m/s 730 mmHg 94%
02:00 -2°C° 0 mm 8 m/s 731 mmHg 94%
03:00 -2°C° 0 mm 8 m/s 731 mmHg 94%
04:00 -2°C° 0 mm 8 m/s 732 mmHg 93%
05:00 -2°C° 0 mm 7 m/s 732 mmHg 92%
06:00 -2°C° 0 mm 7 m/s 733 mmHg 91%
07:00 -2°C° 0 mm 6 m/s 733 mmHg 90%
08:00 -2°C° 0 mm 5 m/s 734 mmHg 88%
09:00 -2°C° 0 mm 5 m/s 734 mmHg 86%
10:00 -1°C° 0 mm 5 m/s 734 mmHg 86%
11:00 -1°C° 0 mm 5 m/s 735 mmHg 85%
12:00 0°C° 0 mm 5 m/s 735 mmHg 85%
13:00 0°C° 0 mm 5 m/s 735 mmHg 85%
14:00 0°C° 0 mm 5 m/s 735 mmHg 85%
15:00 0°C° 0 mm 5 m/s 736 mmHg 85%
16:00 -1°C° 0 mm 4 m/s 736 mmHg 86%
17:00 -2°C° 0 mm 4 m/s 736 mmHg 87%
18:00 -2°C° 0 mm 3 m/s 737 mmHg 88%
19:00 -2°C° 0 mm 3 m/s 737 mmHg 88%
20:00 -2°C° 0 mm 2 m/s 737 mmHg 88%
21:00 -3°C° 0 mm 2 m/s 738 mmHg 88%
22:00 0°C° 0 mm 1 m/s 737 mmHg 87%
23:00 0°C° 0 mm 1 m/s 737 mmHg 87%

Depois de amanhã, 26 Janeiro, Terça-feira

Tempo Temperatura Precipitação Vento Pressão Humidade
00:00 0°C° 0 mm 1 m/s 737 mmHg 86%
01:00 0°C° 0 mm 1 m/s 737 mmHg 87%
02:00 0°C° 0 mm 1 m/s 737 mmHg 87%
03:00 -1°C° 0 mm 2 m/s 737 mmHg 87%
04:00 -1°C° 0.3 mm 2 m/s 736 mmHg 90%
05:00 +1°C° 0.3 mm 2 m/s 736 mmHg 94%
06:00 +1°C° 0.3 mm 2 m/s 735 mmHg 97%
07:00 +1°C° 1 mm 3 m/s 734 mmHg 97%
08:00 +2°C° 1 mm 3 m/s 734 mmHg 98%
09:00 +2°C° 1 mm 3 m/s 733 mmHg 98%
10:00 +3°C° 1.4 mm 4 m/s 732 mmHg 98%
11:00 +3°C° 1.4 mm 5 m/s 732 mmHg 98%
12:00 +3°C° 1.4 mm 5 m/s 731 mmHg 98%
13:00 +4°C° 0.2 mm 6 m/s 731 mmHg 97%
14:00 +5°C° 0.2 mm 6 m/s 731 mmHg 97%
15:00 +7°C° 0.2 mm 6 m/s 731 mmHg 96%
16:00 +5°C° 0 mm 6 m/s 732 mmHg 96%
17:00 +5°C° 0 mm 5 m/s 733 mmHg 95%
18:00 +3°C° 0 mm 5 m/s 734 mmHg 94%
19:00 +3°C° 0 mm 5 m/s 735 mmHg 94%
20:00 +3°C° 0 mm 5 m/s 735 mmHg 94%
21:00 +3°C° 0 mm 5 m/s 736 mmHg 94%
22:00 +3°C° 0 mm 6 m/s 736 mmHg 94%
23:00 +3°C° 0 mm 6 m/s 737 mmHg 95%

27 Janeiro, Quarta-feira

Tempo Temperatura Precipitação Vento Pressão Humidade
00:00 +3°C° 0 mm 7 m/s 737 mmHg 95%
01:00 +3°C° 0 mm 5 m/s 737 mmHg 95%
02:00 +3°C° 0 mm 4 m/s 737 mmHg 96%
03:00 +3°C° 0 mm 3 m/s 738 mmHg 96%
04:00 +3°C° 0 mm 3 m/s 738 mmHg 96%
05:00 +4°C° 0 mm 2 m/s 738 mmHg 97%
06:00 +4°C° 0 mm 2 m/s 738 mmHg 98%
07:00 +5°C° 0 mm 2 m/s 738 mmHg 98%
08:00 +4°C° 0 mm 3 m/s 738 mmHg 98%
09:00 +5°C° 0 mm 3 m/s 738 mmHg 98%
10:00 +5°C° 0.1 mm 3 m/s 737 mmHg 97%
11:00 +7°C° 0.1 mm 3 m/s 737 mmHg 97%
12:00 +6°C° 0.1 mm 4 m/s 737 mmHg 97%
13:00 +7°C° 1.7 mm 4 m/s 736 mmHg 97%
14:00 +7°C° 1.7 mm 4 m/s 735 mmHg 98%
15:00 +7°C° 1.7 mm 5 m/s 734 mmHg 98%
16:00 +7°C° 2.2 mm 5 m/s 733 mmHg 98%
17:00 +8°C° 2.2 mm 5 m/s 732 mmHg 98%
18:00 +8°C° 2.2 mm 6 m/s 731 mmHg 97%
19:00 +9°C° 1.9 mm 6 m/s 730 mmHg 97%
20:00 +9°C° 1.9 mm 7 m/s 729 mmHg 97%
21:00 +9°C° 1.9 mm 7 m/s 728 mmHg 97%
22:00 +9°C° 0.6 mm 8 m/s 727 mmHg 95%
23:00 +7°C° 0.6 mm 10 m/s 726 mmHg 93%

28 Janeiro, Quinta-feira

Tempo Temperatura Precipitação Vento Pressão Humidade
00:00 +7°C° 0.6 mm 11 m/s 725 mmHg 91%
01:00 +7°C° 0.3 mm 13 m/s 725 mmHg 89%
02:00 +5°C° 0.3 mm 14 m/s 725 mmHg 87%
03:00 +5°C° 0.3 mm 15 m/s 725 mmHg 85%
04:00 +5°C° 0 mm 14 m/s 726 mmHg 85%
05:00 +4°C° 0 mm 12 m/s 726 mmHg 86%
06:00 +3°C° 0 mm 11 m/s 727 mmHg 86%
07:00 +3°C° 0 mm 10 m/s 728 mmHg 87%
08:00 +3°C° 0 mm 9 m/s 729 mmHg 87%
09:00 +3°C° 0 mm 9 m/s 730 mmHg 88%
10:00 +5°C° 0 mm 9 m/s 731 mmHg 86%
11:00 +5°C° 0 mm 9 m/s 732 mmHg 85%
12:00 +6°C° 0 mm 9 m/s 733 mmHg 83%
13:00 +6°C° 0 mm 8 m/s 733 mmHg 84%
14:00 +6°C° 0 mm 8 m/s 733 mmHg 85%
15:00 +6°C° 0 mm 7 m/s 733 mmHg 86%
16:00 +6°C° 0 mm 7 m/s 733 mmHg 89%
17:00 +7°C° 0 mm 6 m/s 733 mmHg 92%
18:00 +6°C° 0 mm 5 m/s 733 mmHg 95%

29 Janeiro, Sexta-feira

Tempo Temperatura Precipitação Vento Pressão Humidade
Mostrar mais